Location: Colorado National Monument
(39.1030°N, 108.7297°W)
Time: 15:43:21
(UTC-07:00)

Envisat - Visible Passes

Search period start: 17 February 2019 00:00
Search period end: 27 February 2019 00:00
Orbit: 764 x 766 km, 98.2° (Epoch: 17 February)

Date Brightness Start Highest point End Pass type
(mag) Time Alt. Az. Time Alt. Az. Time Alt. Az.
17 Feb 2.9 18:43:32 10° SSE 18:48:33 67° ENE 18:53:35 10° N visible
17 Feb 6.1 20:25:44 10° WSW 20:28:00 13° W 20:30:17 10° WNW visible
18 Feb 4.9 19:46:32 10° SSW 19:50:56 30° W 19:55:22 10° NW visible
19 Feb 6.7 06:20:18 10° ENE 06:21:14 10° E 06:22:11 10° E visible
19 Feb 3.3 19:09:01 10° S 19:14:03 69° W 19:19:07 10° NNW visible
20 Feb 3.1 18:32:28 10° SSE 18:37:22 52° ENE 18:42:17 10° N visible
20 Feb 5.8 20:13:29 10° SW 20:16:41 17° W 20:19:54 10° NW visible
21 Feb 4.5 19:34:58 10° SSW 19:39:40 38° W 19:44:23 10° NNW visible
22 Feb 3.0 18:57:46 10° SSE 19:02:50 87° WSW 19:07:56 10° NNW visible
23 Feb 3.4 18:21:29 10° SE 18:26:12 41° ENE 18:30:57 10° N visible
23 Feb 5.5 20:01:33 10° SW 20:05:22 21° W 20:09:13 10° NW visible
24 Feb 4.0 19:23:32 10° S 19:28:25 48° W 19:33:20 10° NNW visible
25 Feb 2.9 18:46:36 10° SSE 18:51:39 74° ENE 18:56:43 10° N visible
25 Feb 6.1 20:29:28 10° WSW 20:31:10 12° W 20:32:53 10° WNW visible
26 Feb 5.1 19:49:48 10° SSW 19:54:04 27° W 19:58:22 10° NW visible
